Pardubice, Czech Republic

1:46 AM CET on December 05, 2016 (GMT +0100)
Pardubice

Weather History for LKPD - April, 2014

Change the Weather History Date:

Monday, April 7, 2014

  Actual Average Record
Temperature  
Mean Temperature 52 °F -  
Max Temperature 69 °F - - ()
Min Temperature 35 °F - - ()
Degree Days  
Heating Degree Days 13    
Growing Degree Days 2 (Base 50)    
Moisture  
Dew Point 42 °F    
Average Humidity 67    
Maximum Humidity 100    
Minimum Humidity 27    
Precipitation  
Precipitation 0.00 in - - ()
Sea Level Pressure  
Sea Level Pressure 30.08 in    
Wind  
Wind Speed 2 mph ()    
Max Wind Speed 7 mph    
Max Gust Speed -    
Visibility 7.5 miles    
Events Fog    
T = Trace of Precipitation, MM = Missing Value Source: Averaged Metar Reports

Daily Weather History Graph

Daily Weather History Graph

Search for Another Location

Airport or City:

Trip Planner

Search our weather history database for the weather conditions in past years. The results will help you decide how hot, cold, wet, or windy it might be!

Date:

Astronomy

Apr. 07, 2014 Rise Set
Actual Time 6:21 AM CEST 7:38 PM CEST
Civil Twilight 5:48 AM CEST 8:11 PM CEST
Nautical Twilight 5:07 AM CEST 8:51 PM CEST
Astronomical Twilight 4:24 AM CEST 9:35 PM CEST
Moon 11:44 AM CEST (4/7) 2:20 AM CEST (4/7)
Length of Visible Light 14h 23m
Length of Day
13h 16m
Waxing Crescent, 51% of the Moon is Illuminated
Apr 7
Waxing Crescent
Apr 15
Full
Apr 22
Last Quarter
Apr 29
New
May 7
First Quarter

Hourly Weather History & Observations

Time (CEST) Temp. Dew Point Humidity Pressure Visibility Wind Dir Wind Speed Gust Speed Precip Events Conditions
12:00 AM 42 °F 39 °F 85% 30.13 in 12 mi South 2.2 mph - -  
12:00 AM 42.8 °F 39.2 °F 87% 30.09 in - South 1.2 mph - N/A   Clear
1:00 AM 41 °F 39 °F 91% 30.14 in 12 mi South 2.2 mph - -  
1:00 AM 41.0 °F 39.2 °F 93% 30.09 in - South 2.3 mph - N/A   Clear
2:00 AM 40 °F 38 °F 88% 30.14 in 12 mi ESE 2.2 mph - -  
2:00 AM 41.0 °F 37.4 °F 87% 30.09 in - East 1.2 mph - N/A   Clear
3:00 AM 39 °F 38 °F 92% 30.14 in 9 mi ESE 2.2 mph - -  
3:00 AM 39.2 °F 37.4 °F 93% 30.09 in - ESE 1.2 mph - N/A   Clear
4:00 AM 40 °F 38 °F 91% 30.14 in 9 mi Calm Calm - -  
4:00 AM 39.2 °F 37.4 °F 93% 30.09 in 6.2 mi Calm Calm - N/A   Unknown
5:00 AM 37 °F 36 °F 94% 30.14 in 9 mi Calm Calm - -  
5:00 AM 37.4 °F 35.6 °F 93% 30.09 in - Calm Calm - N/A   Clear
6:00 AM 38 °F 36 °F 92% 30.14 in 5 mi Calm Calm - - Fog Shallow Fog
6:00 AM 37.4 °F 37.4 °F 100% 30.09 in 5.0 mi Calm Calm - N/A Fog Fog
7:00 AM 37 °F 36 °F 92% 30.16 in 4 mi Calm Calm - - Fog Shallow Fog
7:00 AM 37.4 °F 35.6 °F 93% 30.12 in 3.7 mi Calm Calm - N/A Fog Fog
8:00 AM 42 °F 39 °F 87% 30.16 in 5 mi Calm Calm - -   Mist
8:00 AM 41.0 °F 39.2 °F 93% 30.12 in 5.0 mi Calm Calm - N/A   Unknown
9:00 AM 49 °F 42 °F 68% 30.14 in 6 mi West 2.2 mph - -   Clear
9:00 AM 48.2 °F 42.8 °F 82% 30.12 in - Calm Calm - N/A   Clear
10:00 AM 55 °F 44 °F 58% 30.14 in 5 mi ESE 2.2 mph - -   Mist
10:00 AM 53.6 °F 44.6 °F 72% 30.12 in 5.0 mi Variable 1.2 mph - N/A   Unknown
11:00 AM 59 °F 46 °F 52% 30.13 in 5 mi SW 2.2 mph - -   Mist
11:00 AM 59.0 °F 44.6 °F 59% 30.12 in 5.0 mi Variable 1.2 mph - N/A   Unknown
12:00 PM 62 °F 47 °F 48% 30.11 in 5 mi West 2.2 mph - -   Haze
12:00 PM 60.8 °F 46.4 °F 59% 30.12 in 5.0 mi WSW 4.6 mph - N/A   Scattered Clouds
1:00 PM 65 °F 45 °F 37% 30.10 in 5 mi WNW 2.2 mph - -   Haze
1:00 PM 64.4 °F 44.6 °F 49% 30.09 in 5.0 mi West 4.6 mph - N/A   Scattered Clouds
2:00 PM 66 °F 42 °F 31% 30.09 in 6 mi WSW 6.7 mph - -   Partly Cloudy
2:00 PM 66.2 °F 44.6 °F 46% 30.09 in 6.2 mi SW 5.8 mph - N/A   Scattered Clouds
3:00 PM 68 °F 42 °F 27% 30.06 in 9 mi South 4.5 mph - -   Partly Cloudy
3:00 PM 68.0 °F 46.4 °F 46% 30.06 in 6.2 mi SW 4.6 mph - N/A   Mostly Cloudy
4:00 PM 68 °F 46 °F 33% 30.04 in 9 mi WSW 6.7 mph - -   Partly Cloudy
4:00 PM 68.0 °F 46.4 °F 46% 30.04 in - WSW 5.8 mph - N/A   Clear
5:00 PM 68 °F 45 °F 32% 30.02 in 12 mi South 2.2 mph - -   Scattered Clouds
5:00 PM 68.0 °F 44.6 °F 43% 30.04 in - South 3.5 mph - N/A   Clear
6:00 PM 68 °F 43 °F 29% 30.01 in 12 mi WSW 2.2 mph - -   Scattered Clouds
6:00 PM 68.0 °F 42.8 °F 40% 30.01 in - Variable 2.3 mph - N/A   Clear
7:00 PM 66 °F 45 °F 36% 30.00 in 12 mi South 2.2 mph - -   Clear
7:00 PM 66.2 °F 44.6 °F 46% 30.01 in - Variable 1.2 mph - N/A   Clear
8:00 PM 60 °F 45 °F 46% 30.01 in 12 mi East 4.5 mph - -   Clear
8:00 PM 60.8 °F 46.4 °F 59% 30.01 in - East 2.3 mph - N/A   Clear
9:00 PM 58 °F 46 °F 55% 30.02 in 9 mi SSE 2.2 mph - -   Clear
9:00 PM 57.2 °F 46.4 °F 67% 30.01 in - Variable 1.2 mph - N/A   Clear
10:00 PM 51 °F 45 °F 73% 30.02 in 9 mi SE 2.2 mph - -   Clear
10:00 PM 51.8 °F 44.6 °F 76% 30.01 in - Calm Calm - N/A   Clear
11:00 PM 51 °F 45 °F 74% 30.02 in 9 mi East 4.5 mph - -   Clear
11:00 PM 50.0 °F 44.6 °F 82% 30.01 in - East 3.5 mph - N/A   Clear